Weather Roundup
Issued by NWS Springfield, MO

Home | Current Version | Previous Version | Text Only | Print | Product List | Glossary On
Versions: 1 2 3 4 5 6 7 8 9 10 11 12 13 14 15 16 17 18 19 20 21 22 23 24 25 26 27 28 29 30 31 32 33 34 35 36 37 38 39 40 41 42 43 44 45 46 47 48 49 50
000
NZUS99 KSGF 261059
HRRSGF

HOURLY WEATHER
NATIONAL WEATHER SERVICE SPRINGFIELD MO
600 AM CDT TUE MAY 26 2015

......SGF CWA......

CITY           SKY/WX    TMP DP  RH WIND       PRES   REMARKS
SPRINGFIELD    CLOUDY    63  58  83 SW9       29.89R
JOPLIN         CLOUDY    62  59  90 SW13      29.89R
WEST PLAINS    MOCLDY    61  59  93 SW8       29.93R
ROLLA          CLOUDY    63  61  93 SW9       29.86R
OSAGE BEACH    CLOUDY    64  61  88 S8        29.86R

......SURROUNDING SGF CWA......

CITY           SKY/WX    TMP DP  RH WIND       PRES   REMARKS
CHANUTE        MOCLDY    60  60 100 S9        29.84S
PARSONS        MOCLDY    61  61 100 S6        29.89R
EMPORIA        CLOUDY    59  58  96 S6        29.85R
SILOAM SPRINGS CLOUDY    61  54  77 SW9       29.94R
HARRISON AR    CLOUDY    60  58  92 S5        29.93R
NEAR YELLVILLE MOCLDY    61  59  94 CALM      29.92R

......KANSAS AND MISSOURI......

CITY           SKY/WX    TMP DP  RH WIND       PRES   REMARKS
KANSAS CTY INT LGT RAIN  60  59  96 S3        29.79R
DOWNTOWN KC    LGT RAIN  62  58  86 CALM      29.79R
COLUMBIA       CLOUDY    65  62  90 S12       29.84R
SEDALIA        CLOUDY    66  61  84 SW8       29.83R
ST JOSEPH      LGT RAIN  61  59  93 CALM      29.79R
ST LOUIS       LGT RAIN  73  67  81 SE16      29.84F
SPIRIT OF STL  LGT RAIN  71  65  81 E7        29.82R
KIRKSVILLE     LGT RAIN  68  66  93 S16       29.78R
WICHITA        MOCLDY    58  57  97 S6        29.87R
TOPEKA         CLOUDY    61  60  97 SW3       29.82R
OLATHE         CLOUDY    60  59  96 S6        29.81R

......TENNESSEE......

CITY           SKY/WX    TMP DP  RH WIND       PRES   REMARKS
MEMPHIS        CLOUDY    68  65  90 S10       29.96R
NASHVILLE      MOCLDY    66  63  90 S5        30.09S

......ARKANSAS.......

CITY           SKY/WX    TMP DP  RH WIND       PRES   REMARKS
FAYETTEVILLE   CLOUDY    60  58  92 SW6       29.93R
FT SMITH       CLOUDY    62  59  90 SE6       29.93R
LITTLE ROCK    CLOUDY    63  59  87 W7        29.97R

......OKLAHOMA.......

CITY           SKY/WX    TMP DP  RH WIND       PRES   REMARKS
TULSA          CLOUDY    60  59  96 S9        29.90R
PONCA CITY     PTCLDY    59  58  96 S3        29.89R
MCALESTER      CLOUDY    62  60  93 SW7       29.94R
OKLAHOMA CITY  PTCLDY    52  51  97 S5        29.92R FOG

......IOWA............

CITY           SKY/WX    TMP DP  RH WIND       PRES   REMARKS
DES MOINES     RAIN      62  59  90 N7        29.77S FOG
QUAD CITIES    MOCLDY    69  65  86 SE12      29.82S

......ILLINOIS........

CITY           SKY/WX    TMP DP  RH WIND       PRES   REMARKS
QUINCY         CLOUDY    69  66  90 SE10      29.79F
CHICAGO        CLOUDY    68  64  87 S9        29.93S



USA.gov is the U.S. government's official web portal to all federal, state and local government web resources and services.